Content
SEND FEEDBACK

Daily
Averages
Monthly
Summary
United States of America

YIGO, GUAM


Home > North America > United States > Guam
Elevation: 530 feet     Latitude: 13 32N     Longitude: 144 53E

WEATHER
 
SELECT A DAY
Number of Records: 209,165;   Date Range: 1/1/95 - 8/30/14
 
SHARE

PRINT THIS DATA

[ ← Previous Day ]
WEATHER ALMANAC - JANUARY 8, 2013
[ Next Day → ]
[ °C ]   °F
Weather ElementAverageHighLow
Temperature77.6 °F84.2 °F (1:07 pm)73.4 °F (4:29 am)
Dewpoint74.5 °F75.9 °F (9:54 am)73 °F (3:54 am)
Humidity90.5 %100 % (4:29 am)69 % (1:54 pm)
Barometer29.83 in29.90 in (9:28 am)29.77 in (2:54 pm)
Wind Speed15.5 mph21.9 mph (9:47 am)
Wind Gust31.1 mph (1:07 pm)
Weather ElementAverage
Visibility7.2 mi
Wind DirectionENE (55.2 °)

Weather ElementTotal
Precipitation0.63 in
Cooling Degree Days13.8 (Base 65)
Growing Degree Days28.8 (Base 50)
Averaged from 46 records on January 8, 2013
WEATHER CONDITIONS BREAKOUT
WIND DIRECTION BREAKOUT
WEATHER BY HOUR - JANUARY 8, 2013
[ °C ]   °F
Local TimeTemperatureDewpointHumidityBarometerVisibilityWind DirectionWind SpeedGust SpeedPrecipitationEventsConditions
1:54 AM77.0 °F73.9 °F90 %29.83 in10.0 miENE (60°)12.7 mphMostly Cloudy
2:54 AM77.0 °F73.9 °F90 %29.83 in9.0 miNE (40°)16.1 mphOvercast
3:54 AM75.0 °F73.0 °F94 %29.82 in9.0 miNE (50°)16.1 mph0.00 inOvercast
4:29 AM73.4 °F73.4 °F100 %29.85 in2.5 miEast (90°)10.4 mph0.01 inRainRain
4:35 AM73.4 °F73.4 °F100 %29.85 in3.0 miEast (90°)11.5 mph0.02 inRainRain
4:54 AM73.9 °F73.0 °F97 %29.82 in10.0 miNE (50°)8.1 mph0.04 inOvercast
5:01 AM73.4 °F73.4 °F100 %29.84 in6.0 miNE (40°)10.4 mph0.00 inRainLight Rain
5:32 AM73.4 °F73.4 °F100 %29.84 in4.0 miNNE (30°)11.5 mph0.05 inRainLight Rain
5:54 AM75.0 °F73.9 °F96 %29.83 in10.0 miNNE (30°)11.5 mph0.05 inOvercast
6:19 AM75.2 °F73.4 °F94 %29.85 in10.0 miNE (40°)15.0 mphScattered Clouds
6:54 AM75.9 °F73.9 °F94 %29.84 in10.0 miNE (40°)12.7 mphPartly Cloudy
7:54 AM77.0 °F73.9 °F90 %29.86 in10.0 miNE (40°)9.2 mphMostly Cloudy
8:54 AM79.0 °F73.0 °F82 %29.87 in10.0 miNE (40°)16.1 mph24.2 mphMostly Cloudy
9:28 AM77.0 °F73.4 °F89 %29.90 in1.8 miENE (70°)13.8 mph0.01 inRainHeavy Rain
9:38 AM77.0 °F75.2 °F94 %29.90 in3.0 miENE (60°)9.2 mph0.03 inRainLight Rain
9:47 AM77.0 °F73.4 °F89 %29.90 in5.0 miNE (40°)21.9 mph26.5 mph0.04 inRainLight Rain
9:54 AM78.1 °F75.9 °F93 %29.88 in6.0 miNE (50°)18.4 mph28.8 mph0.09 inRainLight Rain
10:02 AM78.8 °F75.2 °F89 %29.89 in10.0 miNE (40°)16.1 mph26.5 mph0.00 inOvercast
10:44 AM78.8 °F75.2 °F89 %29.88 in5.0 miENE (60°)19.6 mph26.5 mph0.00 inRainLight Rain
10:54 AM79.0 °F75.9 °F90 %29.86 in10.0 miNE (50°)18.4 mph26.5 mph0.00 inOvercast
11:54 AM82.0 °F75.9 °F82 %29.84 in10.0 miNE (50°)19.6 mph27.6 mphMostly Cloudy
12:12 PM82.4 °F75.2 °F79 %29.85 in10.0 miNE (50°)18.4 mph26.5 mphMostly Cloudy
12:54 PM82.9 °F73.9 °F74 %29.81 in10.0 miENE (60°)20.7 mph27.6 mphScattered Clouds
1:07 PM84.2 °F73.4 °F70 %29.82 in10.0 miENE (60°)18.4 mph31.1 mphMostly Cloudy
1:43 PM82.4 °F73.4 °F74 %29.80 in10.0 miENE (60°)19.6 mph31.1 mphPartly Cloudy
1:54 PM84.0 °F73.0 °F69 %29.78 in10.0 miENE (60°)21.9 mph28.8 mphScattered Clouds
2:33 PM80.6 °F75.2 °F84 %29.80 in4.0 miENE (60°)21.9 mph29.9 mph0.00 inRainLight Rain
2:41 PM78.8 °F75.2 °F89 %29.79 in6.0 miENE (60°)18.4 mph0.00 inRainLight Rain
2:54 PM78.1 °F75.9 °F93 %29.77 in8.0 miNE (50°)17.3 mph0.00 inRainLight Rain
3:49 PM78.8 °F75.2 °F89 %29.80 in2.0 miENE (60°)15.0 mph26.5 mph0.02 inRainLight Rain
3:54 PM77.0 °F75.0 °F94 %29.78 in4.0 miENE (60°)12.7 mph25.3 mph0.04 inRainLight Rain
4:04 PM77.0 °F75.2 °F94 %29.81 in2.5 miEast (80°)15.0 mph20.7 mph0.01 inRainRain
4:17 PM77.0 °F75.2 °F94 %29.81 in2.5 miENE (60°)17.3 mph27.6 mph0.02 inRainLight Rain
4:24 PM75.2 °F73.4 °F94 %29.80 in4.0 miENE (60°)17.3 mph0.02 inRainLight Rain
4:54 PM78.1 °F73.9 °F87 %29.78 in10.0 miENE (60°)13.8 mph0.02 inOvercast
5:25 PM77.0 °F73.4 °F89 %29.82 in2.0 miENE (60°)21.9 mph29.9 mph0.01 inRainHeavy Rain
5:32 PM75.2 °F75.2 °F100 %29.82 in1.8 miENE (60°)18.4 mph26.5 mph0.03 inRainHeavy Rain
5:34 PM75.2 °F75.2 °F100 %29.82 in2.0 miENE (60°)18.4 mph26.5 mph0.04 inRainHeavy Rain
5:45 PM75.2 °F75.2 °F100 %29.82 in8.0 miNE (40°)15.0 mph0.04 inRainLight Rain
5:54 PM75.9 °F75.0 °F97 %29.81 in10.0 miENE (60°)15.0 mph0.04 inOvercast
6:54 PM78.1 °F75.9 °F93 %29.82 in10.0 miENE (60°)11.5 mphClear
7:54 PM78.1 °F73.9 °F87 %29.83 in10.0 miENE (60°)13.8 mph0.00 inScattered Clouds
8:54 PM78.1 °F75.9 °F93 %29.83 in10.0 miENE (70°)13.8 mph0.00 inPartly Cloudy
9:54 PM78.1 °F75.9 °F93 %29.83 in10.0 miENE (60°)13.8 mphMostly Cloudy
10:54 PM78.1 °F75.9 °F93 %29.83 in10.0 miNE (50°)13.8 mph0.00 inScattered Clouds
11:54 PM78.1 °F75.9 °F93 %29.82 in10.0 miENE (60°)11.5 mphScattered Clouds
Hourly data recorded from PGUM, located miles away from Yigo, Guam







STORIES FROM OUR PARTNERS